Lapse_Rate
7.7 7.8 7.5 7.2 7.1 7.2 7.3 7.2 7.3 7.4 7.3 7.1 7.0 7.0 6.8 6.7 6.4 6.5 6.7 6.5 6.3 6.0 5.9 6.0 6.1 6.0 6.0 6.2 6.3 6.4 6.1 6.0 6.0 5.8 5.7 5.3 4.9 4.7 4.8 4.8 4.9 5.1 5.5
7.7 7.6 7.4 7.4 7.4 7.3 7.4 7.4 7.4 7.3 7.2 7.2 7.2 7.1 6.9 7.0 6.7 6.6 6.7 6.5 6.1 5.9 6.0 6.1 6.0 6.0 6.0 6.2 6.3 6.4 6.2 5.9 6.1 5.8 5.5 5.4 4.8 4.7 4.5 4.5 4.9 5.2 5.4
7.7 7.6 7.5 7.2 7.0 7.2 7.1 7.2 7.3 7.3 7.3 7.2 7.2 7.1 7.1 7.0 7.1 7.1 6.8 6.4 6.1 6.0 6.0 6.0 6.0 6.2 6.1 6.2 6.3 6.3 6.4 5.8 6.0 5.9 5.6 5.3 4.7 4.7 4.4 4.5 4.9 5.4 5.8
7.8 7.6 7.6 7.4 7.2 7.2 7.3 7.2 7.2 7.0 7.1 7.3 7.2 7.2 7.0 7.0 6.9 6.8 6.7 6.4 6.3 6.2 6.1 6.0 6.1 6.2 6.2 6.1 6.2 6.3 6.3 5.9 6.0 5.9 5.7 5.3 4.8 4.6 4.5 4.8 4.9 5.6 5.8
8.0 8.0 7.8 7.8 7.9 8.1 7.8 7.6 7.4 7.2 7.1 6.9 6.8 6.9 7.0 7.1 7.1 6.8 6.8 6.6 6.4 6.2 6.2 6.3 6.3 6.4 6.5 6.3 6.3 6.3 6.4 5.9 5.9 5.9 5.8 5.3 4.9 4.4 4.6 4.7 5.0 5.3 5.5
7.9 7.9 7.8 7.9 7.9 7.9 8.0 8.0 8.0 8.0 8.0 7.5 6.9 6.7 6.6 6.8 6.9 6.9 6.7 6.8 6.5 6.6 6.5 6.5 6.3 6.3 6.1 6.2 6.3 6.2 6.3 6.2 5.8 6.0 5.9 5.3 5.1 4.4 4.6 4.5 4.9 4.9 5.5
7.7 7.8 8.0 8.0 8.0 7.9 7.9 7.8 7.7 7.9 8.0 7.9 7.2 6.9 6.7 6.7 6.6 6.8 6.7 6.7 6.8 6.9 7.1 7.5 6.6 6.4 5.9 6.3 6.3 6.4 6.3 6.3 5.8 5.9 5.9 5.6 5.2 4.5 4.4 4.4 4.7 4.8 5.3
7.5 7.5 7.5 7.6 7.6 7.4 7.4 7.4 7.4 7.2 7.3 7.3 7.2 7.0 6.8 6.7 6.5 6.4 6.3 6.4 6.5 6.5 6.7 6.7 6.7 6.8 6.5 6.8 6.9 6.4 6.3 6.5 5.9 5.8 5.9 5.6 5.0 4.8 4.4 4.3 4.6 4.8 4.7
7.4 7.4 7.4 7.1 6.9 6.8 6.9 6.9 6.8 6.6 6.6 6.5 6.5 6.9 7.0 6.9 6.7 6.7 6.4 6.5 6.5 6.4 6.5 6.6 6.8 6.8 6.3 6.3 6.8 6.1 6.3 6.4 6.1 5.8 5.7 5.6 5.3 4.8 4.5 4.2 4.5 4.5 4.5
7.1 7.1 6.8 6.5 6.4 6.5 6.5 6.5 6.5 6.5 6.3 6.2 6.2 6.1 6.6 7.1 6.8 6.5 6.9 6.6 6.7 6.6 6.5 6.0 6.1 6.5 6.6 5.8 6.3 6.3 6.5 6.2 6.2 5.6 5.5 5.5 5.5 4.8 4.6 4.3 4.3 4.6 4.1
6.6 6.7 6.8 6.9 6.8 6.8 6.6 6.4 6.3 6.2 6.1 6.1 6.2 6.2 6.2 6.5 7.0 6.5 6.6 6.8 6.8 6.3 6.0 6.2 5.8 5.6 5.9 5.7 5.7 6.1 6.7 6.3 6.3 5.7 5.3 5.2 5.3 4.9 4.7 4.4 4.3 4.3 4.3
6.5 6.6 6.7 6.8 6.9 6.9 6.9 6.8 6.8 6.6 6.6 6.5 6.4 6.6 6.6 6.6 6.7 6.6 6.4 6.6 6.9 6.6 6.3 5.7 5.4 4.8 5.3 4.8 5.7 6.0 6.8 6.4 6.4 6.1 5.5 5.2 5.2 5.1 4.6 4.5 4.4 4.2 4.2
6.7 6.7 6.7 6.7 6.7 6.6 6.6 6.6 6.5 6.5 6.5 6.5 6.5 6.7 6.7 6.7 6.8 6.5 6.3 6.5 6.9 6.8 6.3 5.9 5.1 4.8 4.8 4.7 5.1 5.6 6.7 6.8 6.5 6.0 5.7 5.4 5.4 5.1 5.0 4.4 4.3 4.2 4.0
6.5 6.6 6.6 6.5 6.5 6.4 6.2 6.2 6.3 6.3 6.4 6.3 6.2 6.3 6.7 6.8 6.9 6.7 6.4 6.3 6.7 7.0 6.2 5.7 4.9 5.3 4.6 4.6 5.1 5.1 6.4 6.7 6.7 6.2 5.9 5.6 5.6 5.1 5.1 4.7 4.5 4.6 4.0
6.1 6.0 6.0 6.0 5.9 5.8 5.7 5.6 5.5 5.5 5.8 5.6 5.8 5.8 6.1 6.7 6.8 6.8 6.7 6.4 6.6 6.8 6.8 6.0 5.3 5.1 4.7 4.6 5.0 5.1 5.4 6.2 6.4 6.3 6.0 5.7 5.5 5.4 5.1 5.1 4.6 4.4 4.4
5.9 5.8 5.7 5.6 5.4 5.4 5.4 5.4 5.3 5.2 5.3 5.1 5.1 5.3 5.5 6.1 6.3 6.5 6.7 6.7 6.6 6.6 6.7 6.0 5.5 5.2 5.0 4.6 4.6 5.0 5.3 5.9 6.1 6.4 6.1 5.8 5.6 5.6 5.5 5.2 5.2 4.7 4.5
5.8 6.0 5.7 5.7 5.9 6.2 6.2 6.1 6.1 6.0 5.4 5.2 4.8 5.0 5.2 5.6 5.6 5.9 6.3 6.7 6.5 6.5 6.5 5.9 5.6 5.2 5.1 5.0 4.7 4.9 5.1 5.5 5.9 6.3 6.3 5.9 5.8 5.6 5.5 5.5 5.3 5.3 4.8
6.0 5.8 5.5 5.7 5.9 6.0 6.1 6.2 6.0 6.0 6.0 6.0 5.5 4.9 4.9 5.0 5.0 5.2 5.6 6.3 6.6 6.5 6.3 6.0 6.2 5.4 5.1 4.7 4.7 5.0 5.2 5.5 6.1 6.5 6.7 5.9 6.0 5.9 5.8 5.7 5.7 5.5 5.1
5.0 5.2 5.3 5.5 5.8 6.1 6.2 6.3 6.1 6.3 7.0 7.9 7.7 7.0 6.1 5.9 5.2 5.2 5.3 5.8 6.1 6.3 6.0 5.8 5.9 5.6 4.9 4.7 4.6 4.7 5.3 5.6 6.0 6.3 6.7 6.5 5.8 6.0 5.9 5.5 5.5 5.6 5.6
4.9 5.3 5.5 5.6 5.8 6.0 6.2 6.2 6.5 6.5 6.9 7.5 7.8 7.3 6.4 6.1 5.9 5.5 5.4 5.6 5.8 5.9 5.9 5.9 5.7 5.4 5.0 4.8 4.6 4.7 5.2 5.6 6.0 6.4 6.6 6.7 6.4 6.0 6.0 5.7 5.2 5.2 5.3
5.9 5.9 6.0 6.0 5.9 5.9 6.0 6.1 6.3 6.5 6.8 7.1 7.2 7.1 6.9 6.6 6.1 6.0 5.8 5.8 5.7 5.8 5.8 5.9 5.8 5.7 5.1 4.8 4.8 5.0 5.2 5.7 6.2 6.5 6.5 6.7 6.6 6.5 6.4 6.0 5.1 4.9 4.7
6.0 6.0 6.0 5.9 5.8 5.7 5.9 6.0 6.1 6.3 6.4 6.6 6.7 6.8 6.7 6.6 6.5 6.4 6.5 6.4 5.9 5.8 5.8 5.7 5.3 5.3 5.0 5.0 4.9 5.1 5.3 5.9 6.3 6.3 6.6 6.8 6.8 6.3 6.4 6.3 5.5 4.5 4.5
5.8 5.7 5.8 5.7 5.8 5.9 5.9 6.1 6.2 6.1 6.2 6.4 6.4 6.7 6.8 6.7 6.8 6.8 6.9 6.7 6.3 6.1 5.8 5.3 5.3 5.4 5.3 5.0 5.1 5.2 5.2 5.7 6.8 6.7 6.6 6.6 6.6 6.2 6.0 6.4 6.3 5.6 4.8
5.7 5.6 5.6 5.9 5.9 6.0 6.3 6.4 6.4 6.4 6.5 6.5 6.5 6.8 7.0 6.9 7.1 7.1 7.4 7.1 6.9 6.5 5.9 5.9 5.7 5.5 5.4 5.4 5.5 5.6 5.6 5.5 6.2 6.6 6.2 6.5 6.1 5.9 5.9 6.0 6.2 6.0 5.8
6.0 5.9 5.8 5.8 6.1 6.3 6.4 6.3 6.5 6.5 6.4 6.6 6.7 7.0 7.1 7.1 7.2 7.1 7.2 7.2 6.8 6.8 6.0 5.1 5.5 5.5 5.5 5.1 5.2 5.4 5.6 5.8 5.6 5.7 5.8 6.0 5.8 5.7 5.0 5.5 5.9 5.8 5.6
5.5 5.8 5.8 6.0 5.9 6.0 6.0 6.0 6.2 6.4 6.5 6.1 6.8 7.1 7.2 7.0 7.0 6.9 6.7 6.8 6.5 6.3 5.9 5.3 6.1 5.8 5.6 5.7 5.4 5.1 5.1 4.8 4.6 4.8 5.2 5.1 5.0 5.0 5.3 5.5 5.6 5.8 5.8
Wind_Speed
11 11 11 10 11 10 11 12 12 12 11 11 11 10 10 9 7 7 7 6 6 5 3 4 3 2 2 2 3 2 2 2 2 2 3 4 6 6 7 8 9 10 13
8 7 7 9 9 10 11 12 10 12 11 11 11 10 11 10 9 8 9 7 7 6 6 5 4 2 2 3 3 2 2 3 3 6 4 4 5 6 6 7 7 10 11
3 2 5 5 4 8 8 10 9 10 11 11 11 11 11 11 10 9 9 8 7 7 6 5 5 5 4 4 4 4 4 3 4 5 6 4 4 4 5 6 6 6 11
9 7 2 2 3 5 6 6 7 8 9 10 10 11 11 10 10 9 9 9 8 6 7 7 7 7 6 6 6 5 6 5 6 5 6 5 5 4 2 4 4 3 5
14 12 11 9 7 4 4 4 6 6 7 8 9 9 9 9 9 11 10 10 9 8 9 9 9 8 6 7 6 7 9 6 6 6 6 5 5 5 4 3 4 5 5
12 12 10 9 9 8 7 8 7 5 4 6 7 8 9 8 9 11 12 10 10 11 11 11 8 6 5 7 7 8 10 10 8 6 5 6 6 5 4 4 4 4 4
8 7 7 6 7 7 8 8 9 8 7 7 7 8 11 12 10 13 13 11 12 13 14 9 5 5 7 8 8 10 8 6 6 8 7 7 7 7 6 6 3 3 4
5 5 5 6 7 7 7 7 8 8 9 9 10 10 11 11 10 14 14 14 13 14 10 12 12 12 11 10 10 11 10 10 9 7 6 6 5 8 7 5 5 6 6
8 8 7 7 7 7 8 9 8 9 9 9 10 12 12 13 9 12 14 13 14 13 11 15 14 12 14 10 11 11 10 9 7 3 3 4 8 9 9 7 6 5 6
10 10 10 9 9 9 8 7 6 7 9 9 12 10 12 13 4 13 15 12 14 10 11 10 10 12 15 16 12 11 11 10 9 9 7 5 9 10 13 6 6 4 5
11 11 10 10 10 11 11 9 8 8 8 8 11 11 10 7 6 14 17 14 13 11 8 8 10 12 15 15 10 12 10 10 9 8 7 7 8 8 8 9 5 4 5
12 12 11 11 10 9 11 11 11 9 9 9 10 10 9 9 9 11 13 11 11 9 8 7 7 16 15 15 12 10 11 9 8 7 7 8 8 8 8 7 7 6 1
13 13 12 12 12 11 11 11 10 10 9 10 10 9 9 7 6 12 12 8 6 5 5 2 8 14 14 12 9 13 13 8 8 8 8 8 8 7 8 7 7 5 5
15 14 12 12 12 12 10 10 10 10 11 11 11 11 11 10 7 6 7 6 6 4 3 4 7 9 10 9 11 9 9 8 8 8 7 7 7 7 8 7 6 6 6
15 15 15 13 14 12 11 11 11 11 11 11 11 11 11 11 9 4 6 6 5 3 5 4 5 7 10 9 9 9 7 7 8 7 8 8 8 8 7 7 6 7 7
16 13 12 12 12 12 11 12 13 16 10 11 13 10 11 10 6 4 6 8 6 11 5 4 4 6 10 11 11 9 7 7 9 9 9 9 9 9 9 8 7 8 7
16 16 13 12 12 11 11 11 12 11 12 12 14 14 13 16 11 11 8 8 8 9 6 9 8 9 8 8 10 11 9 8 8 9 10 10 10 9 9 9 9 8 7
17 16 13 12 12 12 12 12 11 11 11 9 9 12 12 13 12 13 8 4 4 4 8 8 10 11 11 11 9 11 10 8 8 10 10 10 10 10 10 10 10 10 9
14 13 13 12 12 12 12 12 11 12 10 7 5 4 10 11 9 11 7 7 9 9 11 12 10 11 12 12 12 12 13 10 10 11 11 11 10 10 10 10 10 11 9
13 18 16 13 11 12 12 12 12 12 11 9 9 9 9 4 5 7 6 8 9 10 10 11 10 12 11 12 11 12 12 11 12 11 11 11 9 9 9 10 11 11 11
11 11 16 11 10 11 12 13 12 11 11 11 11 10 11 9 9 7 5 7 9 9 9 10 10 11 10 11 11 10 12 11 12 11 10 9 9 8 7 4 6 8 8
12 10 10 10 9 10 11 11 10 11 10 9 10 10 9 8 9 6 7 7 5 7 7 8 8 8 8 8 10 8 9 11 10 10 8 7 6 7 8 8 6 6 6
9 11 9 7 8 10 11 10 10 10 8 8 10 9 7 8 7 6 7 5 3 3 3 7 7 9 8 8 7 8 8 8 8 9 9 8 7 6 5 6 7 8 7
8 8 8 7 7 6 7 7 7 8 10 9 11 9 8 7 5 7 4 2 3 3 3 5 7 13 11 9 7 11 11 11 9 8 11 9 8 7 7 7 5 7 6
5 5 5 5 4 5 6 7 9 9 9 8 6 6 6 5 6 5 4 4 4 4 6 7 6 14 14 15 13 17 21 19 14 10 10 8 8 11 8 7 6 4 5
5 5 4 4 5 6 7 7 7 8 5 4 4 5 5 4 5 5 4 5 6 6 8 6 9 12 19 14 17 19 24 24 17 16 12 6 6 6 7 8 9 5 6
Wind_Direction
221 222 227 236 244 246 245 247 251 255 248 248 249 246 250 258 260 246 251 264 263 271 242 249 260 247 282 231 240 219 212 212 144 112 125 103 70 63 60 65 62 69 78
225 222 230 240 245 246 253 258 256 258 261 254 250 244 250 249 249 239 248 256 264 269 247 228 250 223 228 209 217 193 159 185 154 153 146 130 85 85 75 73 61 66 79
243 203 237 270 235 269 268 271 270 265 260 260 254 250 244 244 243 235 241 256 259 256 247 233 240 224 215 203 201 191 150 156 185 162 139 143 120 113 101 84 73 81 86
90 96 78 337 301 280 292 274 270 268 270 265 254 253 250 244 242 232 231 245 251 240 229 224 225 221 221 203 193 177 140 158 140 149 144 149 147 121 121 129 122 94 100
65 63 52 45 42 33 346 300 265 253 262 265 264 259 256 252 245 228 233 241 245 234 221 220 221 222 215 196 181 177 157 164 167 165 159 170 160 160 168 147 131 123 102
56 57 53 48 39 31 16 3 355 350 310 273 261 257 257 245 220 222 232 235 231 229 225 220 216 208 199 174 178 176 175 168 177 182 172 179 172 169 154 165 148 147 136
52 48 42 39 32 19 10 6 352 349 346 327 295 276 264 255 212 210 211 232 222 220 223 211 190 178 181 189 165 165 171 176 188 181 180 183 181 171 156 166 151 121 106
30 22 16 12 11 3 356 353 341 339 341 333 318 302 280 266 215 207 197 219 224 220 207 197 188 186 183 184 173 174 177 188 188 194 187 170 190 167 168 163 151 114 121
351 344 342 338 335 332 326 330 335 333 335 333 323 310 291 279 240 202 186 209 222 223 201 205 204 174 159 175 183 179 174 184 171 188 92 139 138 180 161 159 166 159 141
333 327 317 309 297 289 288 295 300 310 319 324 318 311 304 295 189 197 202 213 215 213 214 221 192 176 151 174 189 181 182 177 176 180 193 174 167 187 179 210 175 164 143
308 305 302 299 296 292 291 283 282 291 302 311 307 303 297 286 263 223 213 228 227 215 204 206 190 162 161 174 189 187 194 172 170 188 195 187 179 172 195 198 206 204 171
288 284 283 283 283 285 281 278 275 280 293 299 300 296 293 282 235 237 250 257 349 275 245 249 203 166 165 165 181 148 137 177 180 193 199 191 187 182 189 187 185 214 179
283 275 275 278 277 273 274 277 277 275 280 284 288 289 287 278 255 230 248 280 320 294 285 251 151 175 162 168 173 146 161 189 193 193 203 196 190 179 163 175 165 188 201
290 284 278 277 276 278 277 272 269 268 271 274 275 278 284 278 269 249 248 238 217 208 168 148 156 182 180 180 154 165 190 197 194 197 198 183 167 169 177 179 180 180 204
287 285 284 283 278 276 269 272 268 261 259 270 271 273 281 280 283 244 240 253 253 145 102 151 159 170 176 187 180 183 190 196 197 197 191 178 181 178 180 182 188 183 208
289 286 283 286 283 279 278 276 243 240 236 236 252 254 270 283 311 292 245 242 230 163 206 201 195 180 191 188 185 180 177 192 202 191 195 186 185 186 179 187 191 196 196
280 284 285 277 274 275 275 276 276 259 223 242 237 236 233 258 294 293 285 267 230 187 224 228 218 198 193 186 191 196 186 190 201 194 195 189 186 192 181 192 201 202 205
278 271 274 272 272 273 271 274 275 271 271 276 238 227 234 238 251 264 259 195 243 225 229 226 214 220 206 194 186 201 191 177 189 198 195 194 188 184 185 185 196 204 207
274 276 278 275 270 269 272 270 266 271 269 260 259 220 229 233 237 256 228 231 227 213 214 218 214 223 213 199 189 197 192 177 187 195 196 197 199 202 204 205 199 201 200
273 265 263 274 274 270 266 262 263 263 268 262 254 253 263 185 239 244 220 232 225 219 214 216 217 217 207 198 186 184 188 183 187 193 196 198 192 204 214 202 206 191 197
278 274 263 263 262 263 262 258 256 261 267 270 261 254 240 239 261 247 233 221 229 216 215 208 202 198 194 190 182 176 180 184 186 187 184 186 182 184 192 198 205 188 185
278 273 263 253 252 255 258 260 257 258 263 264 264 261 181 225 248 240 233 226 246 218 206 196 184 177 178 162 166 158 167 172 176 176 171 165 166 171 162 153 147 148 154
267 268 258 249 249 252 259 261 261 261 255 253 255 254 235 232 235 230 231 214 180 210 156 177 153 156 138 140 137 137 143 151 163 161 151 147 143 141 146 157 159 155 156
269 271 262 258 270 263 254 252 244 241 251 245 249 242 230 226 219 221 200 162 114 113 101 135 143 140 114 104 96 91 98 118 124 130 132 138 131 126 124 120 124 126 119
314 318 301 288 279 266 262 255 249 245 243 244 232 211 206 184 186 180 153 143 110 82 103 103 120 126 119 113 109 110 108 104 101 103 115 116 134 145 125 118 130 132 150
0 358 350 339 328 318 303 290 271 255 234 203 175 170 157 170 169 129 147 127 113 103 101 100 97 106 109 106 104 113 118 118 118 122 110 124 138 144 137 147 161 162 174